Regional Weather Roundup
Issued by NWS Grand Forks, ND

Home | Current Version | Previous Version | Text Only | Print | Product List | Glossary On
Versions: 1 2 3 4 5 6 7 8 9 10 11 12 13 14 15 16 17 18 19 20 21 22 23 24 25 26 27 28 29 30 31 32 33 34 35 36 37 38 39 40 41 42 43 44 45 46 47 48 49 50
169
ASUS43 KFGF 211310
RWRFGF
PRAIRIE TO PINES  WEATHER ROUNDUP
NATIONAL WEATHER SERVICE EASTERN NORTH DAKOTA/GRAND FORKS ND
700 AM CST WED FEB 21 2018

 **SATELLITE DATA USED TO AUGMENT SKY COVER AT AUTOMATED STATIONS**
 *****  WEATHER ACROSS EASTERN NORTH DAKOTA  *****

CITY           SKY/WX    TMP DP  RH WIND       PRES   REMARKS
GRAND FORKS    FAIR      -3 -10  72 SW8       30.39R WCI -18
GRAND FRKS AFB CLEAR     -2  -9  71 SW8       30.35R WCI -17
GRAND FRKS NWS   N/A     -3  -7  82 W5        30.37R WCI -13
DEVILS LAKE    FAIR      -7 -13  75 SW15      30.33R WCI -28
FARGO          FAIR      -4 -11  72 S12       30.44R WCI -22
WAHPETON ARPT  FAIR      -8 -15  71 CALM      30.48R
$$

 ***** WEATHER ACROSS CENTRAL AND WESTERN NORTH DAKOTA  *****

CITY           SKY/WX    TMP DP  RH WIND       PRES   REMARKS
BISMARCK       FAIR     -10 -16  74 SW3       30.38R
MINOT          FAIR      -3 -13  62 SW9       30.27R WCI -19
JAMESTOWN      FAIR      -4 -11  72 W6        30.36R WCI -16
MINOT AFB      FAIR      -4 -13  65 W14       30.26R WCI -24
GARRISON         N/A     -9 -16  71 W9        30.30R WCI -26
WILLISTON      FAIR      -8 -14  74 SW8       30.29S WCI -24
DICKINSON      FAIR      -5 -14  65 SW12      30.25R WCI -23
HETTINGER      FAIR     -16 -20  82 W3        30.30S
$$

 *****  OTHER AIRPORT OBSERVATIONS IN OUR AREA  *****

CITY           SKY/WX    TMP DP  RH WIND       PRES   REMARKS
WALHALLA       FAIR       0  -8  71 W13G18    30.32R WCI -18
GRAFTON AIRPOR FAIR      -2  -9  71 CALM      30.39R
VALLEY CITY AR FAIR      -4 -11  71 W13       30.40R WCI -23
CANDO          FAIR      -9 -15  77 SW10      30.32S WCI -28
CAVALIER APRT    N/A      0  -8  71 W12       30.33R WCI -18
GWINNER          N/A    -11 -17  77 SW12      30.43R WCI -31
SHEYENNE NWR     N/A    -10 -17  72 SW7       29.95S WCI -25
ROLLA          FAIR      -9 -15  77 W14       30.24R WCI -31
 ***** THE ABOVE OBSERVATIONS ARE NON NWS ARE NOT QUALITY
       CONTROLLED AND MAY MIS-REPORT RAIN FOR SNOW...
$$

  *****  WEATHER ACROSS NORTHERN MINNESOTA  *****

CITY           SKY/WX    TMP DP  RH WIND       PRES   REMARKS
FLAG ISLAND    FAIR      -4  -9  77 SW12      30.27R WCI -22
WARROAD        FAIR      -4  -9  77 SW7       30.30R WCI -18
ROSEAU         FAIR       0  -8  71 SW12      30.32R WCI -18
HALLOCK        FAIR      -8 -13  77 S10       30.34R WCI -26
THF RVR FALLS  FAIR      -6 -11  79 SW14      30.37R WCI -26
BAUDETTE       FAIR      -5 -10  79 SW7       30.30R WCI -19
WASKISH        FAIR      -2  -8  78 SW9       30.34R WCI -18
CROOKSTON      FAIR      -9 -15  77 S9        30.42R WCI -27
STEPHEN NDAWN    N/A     -6 -11  77 SW8         N/A  WCI -21
GREENBUSH NDAW   N/A     -6  -9  84 SW10        N/A  WCI -23
$$
  *****  WEATHER ACROSS CENTRAL AND WEST MINNESOTA  *****

CITY           SKY/WX    TMP DP  RH WIND       PRES   REMARKS
FOSSTON        FAIR     -11 -17  77 S12       30.38R WCI -31
BEMIDJI        FAIR      -6 -10  81 SW6       30.35R WCI -18
PARK RAPIDS    FAIR      -7 -15  68 SW3       30.38R
ELBOW LAKE     FAIR     -10 -13  83 SE7       30.47R WCI -25
WADENA         FAIR      -9 -15  77 SW6       30.41R WCI -23
DETROIT LAKES  FAIR      -6  -9  84 SW6       30.41R WCI -18
MOORHEAD       FAIR      -8 -15  71 S7        30.45R WCI -22
FERGUS FALLS   FAIR      -9 -13  84 S5        30.48R WCI -21
MORRIS MN      FAIR      -9 -15  77 CALM      30.47R
STAPLES        FAIR      -9 -15  77 S5        30.42R WCI -21
$$
  *****  WEATHER ELSEWHERE ACROSS MINNESOTA  *****

CITY           SKY/WX    TMP DP  RH WIND       PRES   REMARKS
DULUTH         FAIR      -4  -8  83 W12       30.37R WCI -22
INTRNTL FALLS  FAIR      -7 -11  83 SW8       30.32R WCI -23
ELY            FAIR      -6  -9  84 SW6       30.34R WCI -18
CLOQUET        FAIR      -2  -8  78 SW7       30.40R WCI -16
WHEATON        FAIR     -11 -18  70 SE6       30.50R WCI -25
BRAINERD       FAIR      -5 -11  75 SW7       30.43R WCI -19
HIBBING        FAIR     -20 -24  82 CALM      30.37R
ALEXANDRIA     FAIR      -8 -12  83 SW8       30.45R WCI -24
SAINT CLOUD    FAIR      -4  -8  83 CALM      30.50R
MINNEAPOLIS    FAIR       3  -1  83 SW5       30.55R WCI  -6
$$

  *****  WEATHER ACROSS SOUTH DAKOTA  *****

CITY           SKY/WX    TMP DP  RH WIND       PRES   REMARKS
SIOUX FALLS    FAIR      -4  -9  79 CALM      30.51S
BROOKINGS      FAIR      -6 -10  83 MISG      30.48R
WATERTOWN      FAIR      -9 -13  83 NW6       30.44R WCI -22
HURON          FAIR      -8 -13  78 E3        30.50S
SISSETON         N/A      0 -10  63 W13       30.44S WCI -18
ABERDEEN       FAIR     -22 -27  77 S5        30.48R WCI -36
MITCHELL       FAIR      -3 -10  72 W5        30.52S WCI -13
PIERRE         FAIR     -12 -17  78 W6        30.45R WCI -26
MOBRIDGE       FAIR     -14 -20  74 NW3       30.38S
RAPID CITY     FAIR     -14 -17  87 NW5       30.27F WCI -26
$$

  *****  SOME WEATHER IN NEARBY STATES *****

CITY           SKY/WX    TMP DP  RH WIND       PRES   REMARKS
GLASGOW MT     FAIR     -16 -21  78 E5        30.25S WCI -29
GREAT FALLS MT FAIR      -9 -13  83 SW8       30.08F WCI -25
CHEYENNE WY    FAIR       0  -3  87 W7        30.11R WCI -13
SCOTTSBLUFF NE FAIR      -9 -13  83 S6        30.25S WCI -22
OMAHA NE       FAIR       8   3  80 E3        30.62R
DES MOINES IA  MOCLDY    12   6  77 NW8       30.59R WCI   0
DAVENPORT IA   FAIR      21  13  71 NW13      30.53R WCI   9
CHICAGO IL     CLOUDY    28  19  69 NW12      30.42R WCI  18
EAU CLAIRE WI  FAIR       1  -2  87 SW5       30.53R WCI  -9
LA CROSSE WI   FAIR      11   5  77 NW9       30.56R WCI  -2
$$

  *****  SOME NATIONAL WEATHER *****

CITY           SKY/WX    TMP DP  RH WIND       PRES   REMARKS
LA GUARDIA NY  CLOUDY    58  53  84 S7        30.30R
RALEIGH NC     CLOUDY    65  64  97 SW9       30.47S
ATLANTA GA     CLOUDY    67  67 100 S12       30.39R
NEW ORLEANS LA FAIR      71  71 100 SE7       30.21R
OKLAHOMA CITY  CLOUDY    21  17  84 N18G25    30.40R WCI   6
ALBUQUERQUE NM MOCLDY    30  17  58 NE6       30.10S WCI  24
SALT LAKE CITY FAIR      17   5  59 SE6       30.14F WCI   9
LOS ANGELES CA MOCLDY    48  23  37 NE7       30.10R
BOISE ID       FAIR      23   4  44 SE10      30.12F WCI  12
SEATTLE WA     FAIR      27  13  55 NE5       30.31R WCI  22
$$

*** WEATHER ACROSS MANITOBA...SASKATCHEWAN AND ONTARIO ***
                ***ONTARIO***

CITY           SKY/WX    TMP DP  RH WIND       PRES   REMARKS
GERALDTON      NOT AVBL
THUNDER BAY    NOT AVBL
SIOUX LOOKOUT  NOT AVBL
TORONTO        NOT AVBL
BIG TROUT LK   NOT AVBL
PICKLE LAKE    NOT AVBL
DRYDEN         NOT AVBL
KENORA         NOT AVBL
$$
                *** MANITOBA***

CITY           SKY/WX    TMP DP  RH WIND       PRES   REMARKS
BRANDON        NOT AVBL
DAUPHIN        NOT AVBL
ISLAND LAKE    NOT AVBL
PILOT MOUND    NOT AVBL
THE PAS        NOT AVBL
THOMPSON       NOT AVBL
WINNIPEG       NOT AVBL
$$
                ***SASKATCHEWAN***

CITY           SKY/WX    TMP DP  RH WIND       PRES   REMARKS
ESTEVAN        NOT AVBL
KINDERSLEY     NOT AVBL
LLOYDMINSTER   NOT AVBL
PRINCE ALBERT  NOT AVBL
REGINA         NOT AVBL
YORKTON        NOT AVBL
N. BATTLEFORD  NOT AVBL
LA RONGE       NOT AVBL
SASKATOON      NOT AVBL
SWIFT CURRENT  NOT AVBL
$$
NOTE: THESE ARE AUTOMATED STATIONS WITH LIMITED QUALITY CONTROL
      "FAIR" INDICATES FEW OR NO CLOUDS BELOW 12,000 FEET WITH NO
      SIGNIFICANT WEATHER AND/OR OBSTRUCTIONS TO VISIBILITY.
      SKY/WX - SKY CONDITION AND SIGNIFICANT WEATHER.
      TMP - AIR TEMPERATURE.    DP   - DEWPOINT TEMPERATURE.
      RH  - RELATIVE HUMIDITY.  PRES - PRESSURE.
      HX  - HEAT INDEX.         WCI  - WIND CHILL INDEX.
$




USA.gov is the U.S. government's official web portal to all federal, state and local government web resources and services.